Simultaneous Nadir Overpasses (SNOs) Predictions

Prediction of SNOs over PacNW region [( 10.00, 139.50) to ( 22.70, 165.60)] between AQUA and NPP Satellites:

Table of predicted SNOs over PacNW region for the next 30.0 days since TLE Epoch: 9/22/2017
Index Date (AQUA) Time (AQUA) AQUA Lat,Lon Date (NPP) Time (NPP) NPP Lat,Lon Distance(km) Time Diff (sec)
1 09/29/2017 15:09:40 22.64, 159.84 09/29/2017 15:11:37 23.23, 157.24 273.47 117
2 10/02/2017 03:31:32 22.66, 147.50 10/02/2017 03:28:03 23.16, 145.62 200.18 209
3 10/07/2017 15:59:09 22.60, 147.46 10/07/2017 16:02:26 23.23, 144.55 306.07 197
4 10/15/2017 15:09:44 22.61, 159.82 10/15/2017 15:11:47 23.16, 157.21 273.78 123
5 10/18/2017 03:31:34 22.68, 147.49 10/18/2017 03:28:04 22.78, 145.71 183.15 210




NCC Satellite Simultaneous Nadir Overpasses (SNOs) Prediction Service
